Retour au catalogue

COSMOS 2499 DEB

ActifPO
NORAD 60609·DEBRIS·🇷🇺 Russia

Lancé May 23, 2014 depuis Plesetsk Cosmodrome

Loading…

Prochains Passages (prochaines 24 heures)

TLE

FraisSource: Space-Track

Époque: Sep 12, 2026, 06:44 UTC

1 60609U 14028BV  26255.28069366  .00006307  00000-0  80208-2 0  9992
2 60609  82.2554  99.6072 0345950 269.2072  86.9419 13.40975951162107

Suivez COSMOS 2499 DEB en temps réel avec AllMySat

Download on the App Store